Find Starlink 5708

NORAD ID: 55470 Int'l Des: 2023-015 Owner: SPXS Country: US Constellation: starlink operational
LEOCIRCULAR

Live Position

Loading 3D Globe...

About Starlink 5708

Description loading...

Upcoming Passes

Passes for default location (London). Set your location on the main map for personalized predictions.

Altitude History

Loading altitude history...

Two-Line Element Set

1 55470U 23015X 26126.63192338 -.00000025 00000-0 87561-5 0 9994
2 55470 43.0048 1.4850 0000497 303.2395 56.8408 15.26741535179585
Epoch: May 6, 2026 • Age: 5 hours

Current Status

Altitude 484.5 km
Velocity 7.63 km/s
Sub-Earth Point 13.43°N, 149.02°W
Launch Date Feb 2, 2023
Age 3.2 years
Type internet

Technical Details

Classification Payload
Mass 305.00 kg
Dry Mass 290.00 kg
Total Mass 305.00 kg
Length 0.20 m
Diameter 2.80 m
Span 9.00 m
Shape Box + pan
Manufacturer SPXS
Bus Type Starlink
Phase Status In Orbit
Owner/State SPXS/US

Most Searched